Weather History for Opa Locka, FL

Change the Weather History Date:

Sunday, December 30, 2012

  Actual Average Record
Temperature  
Mean Temperature 61 °F -  
Max Temperature 70 °F 77 °F 85 °F (1981)
Min Temperature 52 °F 58 °F 36 °F (1961)
Degree Days  
Heating Degree Days 4    
Growing Degree Days 11 (Base 50)    
Moisture  
Dew Point 51 °F    
Average Humidity 67    
Maximum Humidity 86    
Minimum Humidity 52    
Precipitation  
Precipitation 0.00 in - - ()
Sea Level Pressure  
Sea Level Pressure 30.23 in    
Wind  
Wind Speed 12 mph (NNE)    
Max Wind Speed 17 mph    
Max Gust Speed 25 mph    
Visibility 10 miles    
Events      
Averages and records for this station are not official NWS values.
T = Trace of Precipitation, MM = Missing Value Source: NWS Daily Summary

Daily Weather History Graph

Daily Weather History Graph

Search for Another Location

Airport:

Trip Planner

Search our weather history database for the weather conditions in past years. The results will help you decide how hot, cold, wet, or windy it might be!

Date:

Astronomy

Dec. 30, 2012 Rise Set
Actual Time 7:07 AM EST 5:40 PM EST
Civil Twilight 6:42 AM EST 6:05 PM EST
Nautical Twilight 6:13 AM EST 6:34 PM EST
Astronomical Twilight 5:45 AM EST 7:02 PM EST
Moon 7:54 PM EST (12/30) 8:28 AM EST (12/30)
Length of Visible Light 11h 23m
Length of Day
10h 32m
Waning Gibbous, 95% of the Moon is Illuminated
Dec 30
Waning Gibbous
Jan 4
Last Quarter
Jan 11
New
Jan 18
First Quarter
Jan 26
Full

Hourly Weather History & Observations

Time (EST) Temp. Dew Point Humidity Pressure Visibility Wind Dir Wind Speed Gust Speed Precip Events Conditions
12:53 AM 60.1 °F - N/A% 30.14 in 10.0 mi NNW 13.8 mph - N/A   Unknown
1:53 AM 57.9 °F 52.0 °F 81% 30.15 in 10.0 mi NW 13.8 mph 20.7 mph N/A   Partly Cloudy
2:53 AM 55.9 °F 51.1 °F 84% 30.16 in 10.0 mi NW 10.4 mph - N/A   Clear
3:53 AM 55.0 °F 51.1 °F 86% 30.17 in 10.0 mi NNW 8.1 mph - N/A   Clear
4:53 AM 54.0 °F 50.0 °F 86% 30.18 in 10.0 mi NNW 6.9 mph - N/A   Clear
5:53 AM 54.0 °F 50.0 °F 86% 30.19 in 10.0 mi North 9.2 mph - N/A   Clear
6:53 AM 53.1 °F 46.9 °F 80% 30.22 in 10.0 mi North 12.7 mph 20.7 mph N/A   Clear
7:53 AM 52.0 °F 45.0 °F 77% 30.24 in 10.0 mi NNW 12.7 mph - N/A   Clear
8:53 AM 54.0 °F 46.0 °F 75% 30.26 in 10.0 mi North 11.5 mph - N/A   Clear
9:53 AM 57.9 °F 46.9 °F 67% 30.28 in 10.0 mi North 12.7 mph - N/A   Clear
10:53 AM 60.1 °F 46.9 °F 62% 30.28 in 10.0 mi NNW 11.5 mph - N/A   Clear
11:53 AM 63.0 °F 48.9 °F 60% 30.27 in 10.0 mi North 9.2 mph - N/A   Clear
12:53 PM 68.0 °F 50.0 °F 52% 30.24 in 10.0 mi NNE 13.8 mph - N/A   Clear
1:53 PM 69.1 °F 52.0 °F 54% 30.23 in 10.0 mi NNE 13.8 mph 23.0 mph N/A   Mostly Cloudy
2:53 PM 70.0 °F 53.1 °F 55% 30.22 in 10.0 mi NNE 16.1 mph 24.2 mph N/A   Mostly Cloudy
3:53 PM 69.1 °F 54.0 °F 58% 30.23 in 10.0 mi NNE 13.8 mph 24.2 mph N/A   Overcast
4:53 PM 69.1 °F 54.0 °F 58% 30.24 in 10.0 mi NNE 17.3 mph 25.3 mph N/A   Overcast
5:53 PM 66.9 °F 53.1 °F 61% 30.25 in 10.0 mi NE 10.4 mph 20.7 mph N/A   Mostly Cloudy
6:53 PM 66.9 °F 52.0 °F 59% 30.27 in 10.0 mi NE 13.8 mph 20.7 mph N/A   Mostly Cloudy
7:53 PM 68.0 °F 53.1 °F 59% 30.27 in 10.0 mi NE 11.5 mph - N/A   Overcast
8:53 PM 68.0 °F 53.1 °F 59% 30.28 in 10.0 mi NE 11.5 mph - N/A   Overcast
9:53 PM 66.0 °F 53.1 °F 63% 30.29 in 10.0 mi ENE 15.0 mph - N/A   Mostly Cloudy
10:53 PM 66.9 °F 53.1 °F 61% 30.29 in 10.0 mi ENE 12.7 mph - N/A   Mostly Cloudy
11:53 PM 66.0 °F 53.1 °F 63% 30.28 in 10.0 mi East 10.4 mph - N/A   Mostly Cloudy